Location: Finkenbach
(49.5340°N, 8.9188°E)
Time: 20:46:46
(UTC+00:00)

Cosmos 1933 Rocket - Pass Details

Date: 17 June 2025
Orbit: 600 x 624 km, 82.5° (Epoch: 16 July)

Event Time Altitude Azimuth Distance (km) Brightness Sun altitude
Rises 20:32:46 0° 352° (N) 2,900 8.1 -7.6°
Reaches altitude 10° 20:35:03 10° 356° (N) 1,986 7.1 -7.8°
Maximum altitude 20:39:24 63° 78° (ENE) 688 3.7 -8.3°
Enters shadow 20:43:40 10° 159° (SSE) 1,943 5.5 -8.7°
